Home   Weather   Cluj-Napoca   Past weeks

Flag for Romania Past Weather in Cluj-Napoca, Romania — Yesterday and Last 2 Weeks

Now
16 °F

Ice fog.


Feels Like: 16 °F
Forecast: 19 / 34 °F
Wind: No wind

Location: Cluj Airport-Napoca

Current Time: Jan 21, 2017 at 6:26:46 am

Latest Report: Jan 21, 2017 at 5:30 am


Visibility: 3 mi

Pressure: 30.51 "Hg

Humidity: 79%

Dew Point: 10 °F

Location of Cluj-NapocaLocation

Past Weather in Cluj-Napoca — Graph

°F

Cluj-Napoca Temperature Yesterday

Maximum temperature yesterday: 28 °F (at 2:30 pm)
Minimum temperature yesterday: 7 °F (at 6:00 am)
Average temperature yesterday: 16 °F

High & Low Weather Summary for the Past Weeks

 TemperatureHumidityPressure
High43 °F (Jan 14, 11:00 am)93% (Jan 14, 10:30 pm)30.63 "Hg (Jan 14, 10:30 pm)
Low0 °F (Jan 10, 4:30 am)32% (Jan 19, 2:00 pm)29.30 "Hg (Jan 14, 4:00 am)
Average19 °F71%30.12 "Hg
* Reported Jan 6 5:00 am — Jan 21 5:00 am, Cluj-Napoca, Weather by CustomWeather, © 2017

Note: Actual official high and low records may vary slightly from our data, if they occured in-between our weather recording intervals... More about our weather records

Advertising

Cluj-Napoca Weather History for the Previous 24 Hours

Scroll right to see more
 ConditionsComfort  
Time TempWeatherWind HumidityBarometerVisibility
5:00 am
Sat, Jan 21
16 °FIce fog.No wind79%30.51 "Hg3 mi
4:30 am16 °FIce fog.No wind79%30.51 "Hg3 mi
4:00 am14 °FIce fog.No wind85%30.51 "Hg3 mi
3:30 am14 °FIce fog.No wind85%30.51 "Hg3 mi
3:00 am14 °FIce fog.No wind85%30.51 "Hg3 mi
2:00 am12 °FIce fog.No wind85%30.54 "Hg3 mi
1:30 am12 °FIce fog.No wind79%30.54 "Hg3 mi
1:00 am10 °FIce fog.3 mph85%30.54 "Hg3 mi
12:30 am10 °FIce fog.1 mph85%30.54 "Hg3 mi
12:00 am12 °FIce fog.1 mph85%30.54 "Hg3 mi
11:30 pm
Fri, Jan 20
12 °FIce fog.No wind92%30.54 "Hg3 mi
11:00 pm12 °FClear.No wind92%30.54 "Hg4 mi
10:30 pm12 °FClear.No wind92%30.54 "Hg4 mi
10:00 pm12 °FClear.No wind85%30.54 "Hg4 mi
9:30 pm14 °FClear.No wind85%30.54 "Hg10 mi
9:00 pm14 °FClear.1 mph79%30.54 "Hg10 mi
8:30 pm16 °FClear.1 mph79%30.54 "Hg10 mi
8:00 pm18 °FClear.1 mph79%30.54 "Hg10 mi
7:30 pm18 °FClear.No wind73%30.54 "Hg10 mi
7:00 pm18 °FClear.No wind73%30.54 "Hg10 mi
6:30 pm21 °FClear.2 mph68%30.54 "Hg10 mi
6:00 pm23 °FClear.1 mph58%30.54 "Hg10 mi
5:30 pm25 °FClear.1 mph54%30.54 "Hg10 mi
5:00 pm27 °FSunny.3 mph50%30.54 "Hg10 mi
4:30 pm28 °FSunny.3 mph47%30.54 "Hg10 mi
4:00 pm28 °FSunny.3 mph47%30.54 "Hg10 mi
3:30 pm28 °FSunny.5 mph47%30.54 "Hg10 mi
3:00 pm28 °FSunny.3 mph47%30.54 "Hg10 mi
2:30 pm28 °FSunny.5 mph47%30.57 "Hg10 mi
2:00 pm27 °FSunny.6 mph54%30.57 "Hg10 mi
1:30 pm27 °FSunny.5 mph50%30.57 "Hg10 mi
1:00 pm25 °FSunny.3 mph59%30.57 "Hg10 mi
12:30 pm23 °FSunny.3 mph63%30.57 "Hg10 mi
12:00 pm21 °FSunny.3 mph68%30.60 "Hg10 mi
11:30 am19 °FClear.5 mph68%30.60 "Hg5 mi
10:30 am14 °FClear.2 mph79%30.60 "Hg4 mi
10:00 am12 °FClear.3 mph85%30.63 "Hg4 mi
9:30 am10 °FClear.3 mph79%30.60 "Hg4 mi
9:00 am9 °FClear.No wind85%30.60 "Hg4 mi
8:30 am7 °FClear.No wind85%30.60 "Hg4 mi
8:00 am7 °FClear.No wind85%30.60 "Hg4 mi
7:30 am7 °FClear.1 mph85%30.60 "Hg5 mi
7:00 am7 °FClear.5 mph85%30.60 "Hg10 mi
6:30 am7 °FPassing clouds.3 mph92%30.60 "HgN/A
6:00 am7 °FClear.6 mph85%30.57 "Hg10 mi
Weather by CustomWeather, © 2017

See weather overviewHow to use our weather pages